Simultaneous Nadir Overpasses (SNOs) Predictions

Prediction of SNOs between METOP-B and NPP Satellite Orbit:

Table of predicted SNOs for the next 14.0 days since TLE Epoch: 11/20/2020
Index Date (METOP-B) Time (METOP-B) Lat,Lon (METOP-B) SZA (METOP-B ) Date (NPP) Time (NPP) Lat,Lon (NPP) SZA (NPP ) Distance(km) Time Diff (sec)
1 12/03/2020 23:48:11 73.50, 176.49 95.72 12/03/2020 23:47:05 73.49, 173.46 95.79 95.75 66
2 12/04/2020 00:38:55 -73.38, -16.45 84.40 12/04/2020 00:37:47 -73.39, -19.00 84.32 80.92 68
3 12/04/2020 01:29:39 73.18, 150.43 95.42 12/04/2020 01:28:29 73.20, 148.74 95.49 54.38 70
